EW5804 Weather Reports


Display with metric or nautical units.
time (UTC)temp
F
wind
direction
speed
MPH
gust
MPH
rain 1hr
in
rain 24hr
in
rain mn
in
humidity
%
barometer
mb
20260503223612 64 282 3.0 10.0 0.00 0.00 0.00 41 1016.1
20260503223108 64 264 5.0 11.0 0.00 0.00 0.00 37 1016.1
20260503222601 64 265 5.0 12.0 0.00 0.00 0.00 35 1016.1
20260503222056 65 276 4.0 14.0 0.00 0.00 0.00 35 1016.0
20260503222036 65 251 4.0 14.0 0.00 0.00 0.00 37 1016.1
20260503221043 65 274 5.0 10.0 0.00 0.00 0.00 36 1016.1
20260503220536 65 262 5.0 13.0 0.00 0.00 0.00 36 1016.1
20260503220251 65 247 4.0 13.0 0.00 0.00 0.00 36 1016.1
20260503215525 64 290 3.0 8.0 0.00 0.00 0.00 36 1015.9
20260503215020 64 12 5.0 12.0 0.00 0.00 0.00 36 1016.0
20260503214513 64 280 6.0 12.0 0.00 0.00 0.00 37 1015.9
20260503214008 65 285 5.0 11.0 0.00 0.00 0.00 35 1015.8
20260503213720 65 242 4.0 13.0 0.00 0.00 0.00 36 1015.8
20260503212955 65 286 5.0 13.0 0.00 0.00 0.00 37 1015.8
20260503212449 64 263 5.0 11.0 0.00 0.00 0.00 35 1015.8
20260503211943 65 257 3.0 10.0 0.00 0.00 0.00 36 1015.9
20260503211658 64 275 3.0 10.0 0.00 0.00 0.00 37 1015.8
20260503210931 64 199 5.0 11.0 0.00 0.00 0.00 34 1015.9
20260503210425 64 210 6.0 11.0 0.00 0.00 0.00 35 1015.9
20260503205918 64 182 8.0 14.0 0.00 0.00 0.00 35 1015.9
20260503205412 64 307 6.0 13.0 0.00 0.00 0.00 35 1016.0
20260503204906 64 298 3.0 11.0 0.00 0.00 0.00 38 1015.9
20260503204401 64 170 4.0 12.0 0.00 0.00 0.00 37 1015.8
20260503203854 64 282 6.0 12.0 0.00 0.00 0.00 36 1015.9
20260503203352 64 229 6.0 15.0 0.00 0.00 0.00 38 1015.9
20260503202850 64 331 4.0 15.0 0.00 0.00 0.00 37 1015.9
20260503202352 63 290 4.0 10.0 0.00 0.00 0.00 37 1015.8
20260503201849 63 288 4.0 10.0 0.00 0.00 0.00 36 1015.8
20260503201612 63 299 6.0 12.0 0.00 0.00 0.00 35 1015.8
20260503200848 63 215 7.0 15.0 0.00 0.00 0.00 34 1015.9
20260503200347 64 261 7.0 15.0 0.00 0.00 0.00 35 1016.1
20260503195847 64 226 6.0 12.0 0.00 0.00 0.00 36 1016.1
20260503195348 63 271 4.0 11.0 0.00 0.00 0.00 37 1016.2
20260503194845 62 269 5.0 12.0 0.00 0.00 0.00 37 1016.3
20260503194345 62 251 6.0 13.0 0.00 0.00 0.00 36 1016.3
20260503193845 63 301 6.0 13.0 0.00 0.00 0.00 35 1016.4
20260503193343 63 182 7.0 16.0 0.00 0.00 0.00 37 1016.3
20260503193107 63 269 6.0 16.0 0.00 0.00 0.00 35 1016.3
20260503192341 62 252 6.0 13.0 0.00 0.00 0.00 35 1016.4
20260503192325 62 120 6.0 11.0 0.00 0.00 0.00 38 1016.5
20260503191352 62 278 6.0 13.0 0.00 0.00 0.00 38 1016.7
20260503191101 61 303 8.0 13.0 0.00 0.00 0.00 40 1016.8
20260503190339 62 320 7.0 13.0 0.00 0.00 0.00 35 1016.7
20260503185838 62 248 6.0 14.0 0.00 0.00 0.00 35 1016.7
20260503185338 62 309 6.0 14.0 0.00 0.00 0.00 38 1016.9
20260503184837 62 336 6.0 16.0 0.00 0.00 0.00 34 1016.9
20260503184338 62 237 6.0 16.0 0.00 0.00 0.00 38 1016.8
20260503183837 62 283 6.0 13.0 0.00 0.00 0.00 41 1017.1
20260503183339 62 269 5.0 13.0 0.00 0.00 0.00 34 1017.1
20260503182833 62 276 7.0 16.0 0.00 0.00 0.00 38 1017.2
20260503182817 62 290 8.0 16.0 0.00 0.00 0.00 37 1017.2
20260503181833 62 287 7.0 16.0 0.00 0.00 0.00 36 1017.2
20260503181334 62 210 6.0 13.0 0.00 0.00 0.00 39 1017.1
20260503180833 61 285 7.0 16.0 0.00 0.00 0.00 36 1017.2
20260503180334 61 280 8.0 16.0 0.00 0.00 0.00 39 1017.2
20260503175833 62 309 6.0 16.0 0.00 0.00 0.00 36 1017.3
20260503175559 61 271 6.0 13.0 0.00 0.00 0.00 40 1017.2
20260503174834 61 251 6.0 14.0 0.00 0.00 0.00 42 1017.4
20260503174334 61 235 7.0 16.0 0.00 0.00 0.00 39 1017.3
20260503173833 61 267 6.0 16.0 0.00 0.00 0.00 38 1017.4
20260503173334 61 280 5.0 12.0 0.00 0.00 0.00 43 1017.4
20260503173053 60 260 5.0 11.0 0.00 0.00 0.00 41 1017.4
20260503172547 59 286 7.0 14.0 0.00 0.00 0.00 44 1017.6
20260503172435 60 282 6.0 14.0 0.00 0.00 0.00 46 1017.6
20260503171333 59 305 8.0 16.0 0.00 0.00 0.00 43 1017.6
20260503170832 59 289 8.0 16.0 0.00 0.00 0.00 42 1017.7
20260503170347 60 253 5.0 14.0 0.00 0.00 0.00 43 1017.7
20260503150633 56 261 7.0 14.0 0.00 0.01 0.00 46 1018.4
20260503150127 56 282 6.0 12.0 0.00 0.01 0.00 47 1018.4
20260503131019 53 292 5.0 12.0 0.00 0.02 0.00 55 1017.9
20260503130740 53 210 6.0 16.0 0.00 0.02 0.00 56 1018.0
20260503110827 48 274 2.0 5.0 0.00 0.02 0.00 68 1016.9
20260503110548 47 300 3.0 7.0 0.00 0.02 0.00 68 1016.9
20260503090312 48 294 3.0 9.0 0.00 0.02 0.00 74 1014.8
20260503081236 47 274 2.0 4.0 0.00 0.02 0.00 82 1014.2
20260503080731 47 260 2.0 3.0 0.00 0.02 0.00 83 1014.1
20260503080224 47 269 1.0 3.0 0.00 0.02 0.00 83 1014.0
20260503072642 47 279 1.0 3.0 0.00 0.02 0.00 84 1013.3
20260503072355 47 278 1.0 2.0 0.00 0.02 0.00 84 1013.3
20260503071630 47 278 2.0 3.0 0.00 0.02 0.00 84 1013.2
20260503071124 47 278 2.0 3.0 0.00 0.02 0.00 85 1013.2
20260503070618 47 288 1.0 3.0 0.00 0.02 0.00 85 1013.1
20260503070114 47 287 1.0 3.0 0.00 0.02 0.00 85 1013.1
20260503054442 45 309 0.0 0.0 0.00 0.02 0.00 88 1013.0
20260503053935 45 311 0.0 0.0 0.00 0.02 0.00 88 1013.0
20260503053444 45 311 0.0 0.0 0.00 0.02 0.00 88 1013.0
20260503052924 45 311 0.0 0.0 0.00 0.02 0.00 87 1013.0
20260503052418 45 310 0.0 0.0 0.00 0.02 0.00 87 1013.0
20260503051912 45 311 0.0 0.0 0.00 0.02 0.00 87 1013.0
20260503051407 45 311 0.0 0.0 0.00 0.02 0.00 86 1013.0
20260503050900 45 311 0.0 0.0 0.00 0.02 0.00 86 1013.0
20260503050840 45 311 0.0 0.0 0.00 0.02 0.00 86 1013.0
20260503045856 46 311 0.0 0.0 0.00 0.02 0.00 86 1013.1
20260503045357 46 311 0.0 0.0 0.00 0.02 0.00 86 1013.0
20260503044858 46 311 0.0 0.0 0.00 0.02 0.00 86 1013.0
20260503044358 46 311 0.0 0.0 0.00 0.02 0.00 86 1013.1
20260503043857 46 311 0.0 0.0 0.00 0.02 0.00 86 1013.0
20260503043355 47 311 0.0 0.0 0.00 0.02 0.00 86 1013.1
20260503042853 47 311 0.0 0.0 0.00 0.02 0.00 86 1013.3
20260503042354 47 310 0.0 0.0 0.00 0.02 0.00 85 1013.2
20260503042117 47 311 0.0 0.0 0.00 0.02 0.00 86 1013.1
20260503041354 47 311 0.0 0.0 0.00 0.02 0.00 85 1012.9
20260503040853 47 311 0.0 0.0 0.00 0.02 0.00 85 1012.9
20260503040351 48 311 0.0 0.0 0.00 0.02 0.00 85 1013.2
20260503035849 48 310 0.0 0.0 0.00 0.02 0.02 85 1013.1
20260503035349 48 311 0.0 0.0 0.00 0.02 0.02 85 1012.9
20260503034851 48 311 0.0 0.0 0.00 0.02 0.02 85 1013.0
20260503034342 48 311 0.0 0.0 0.00 0.02 0.02 85 1013.2
20260503034100 48 311 0.0 0.0 0.00 0.02 0.02 85 1013.3
20260503033331 48 311 0.0 0.0 0.00 0.02 0.02 85 1013.1
20260503033045 49 311 0.0 0.0 0.00 0.02 0.02 85 1013.1
20260503032543 49 311 0.0 0.0 0.00 0.02 0.02 85 1012.9
20260503031814 49 311 0.0 0.0 0.00 0.02 0.02 85 1013.0
20260503031307 49 313 0.0 0.0 0.00 0.02 0.02 85 1012.9
20260503030800 49 311 0.0 0.0 0.00 0.02 0.02 85 1012.9
20260503030256 49 311 0.0 0.0 0.00 0.02 0.02 85 1013.0
20260503025748 49 311 0.0 0.0 0.00 0.02 0.02 84 1013.0
20260503025243 49 311 0.0 0.0 0.00 0.02 0.02 84 1012.9
20260503024736 50 311 0.0 0.0 0.00 0.02 0.02 84 1012.9
20260503024233 50 311 0.0 0.0 0.00 0.02 0.02 84 1012.9
20260503024205 50 311 0.0 0.0 0.00 0.02 0.02 84 1012.9
20260503023220 50 311 0.0 0.0 0.00 0.02 0.02 83 1013.1
20260503022712 50 310 0.0 0.0 0.00 0.02 0.02 83 1013.1
20260503022207 50 311 0.0 0.0 0.00 0.02 0.02 83 1013.2
20260503021700 50 310 0.0 0.0 0.00 0.02 0.02 83 1013.2
20260503021154 50 311 0.0 0.0 0.00 0.02 0.02 83 1013.1
20260503020648 50 311 0.0 0.0 0.00 0.02 0.02 83 1013.1
20260503020142 50 310 0.0 0.0 0.00 0.02 0.02 83 1013.0
20260503015637 51 311 0.0 0.0 0.00 0.02 0.02 82 1013.0
20260503015613 51 311 0.0 0.0 0.00 0.02 0.02 82 1013.0
20260503014625 51 311 0.0 0.0 0.00 0.02 0.02 82 1013.1
20260503014120 51 310 0.0 0.0 0.00 0.02 0.02 83 1012.9
20260503013613 51 311 0.0 0.0 0.00 0.02 0.02 83 1013.0
20260503013106 51 311 0.0 0.0 0.00 0.02 0.02 82 1013.0
20260503012600 51 311 0.0 0.0 0.00 0.02 0.02 82 1012.8
20260503012055 51 310 0.0 0.0 0.00 0.02 0.02 82 1012.7
20260503011549 51 308 0.0 0.0 0.00 0.02 0.02 82 1012.7
20260503011307 51 310 0.0 0.0 0.00 0.02 0.02 82 1012.6
20260503010537 52 310 0.0 0.0 0.00 0.02 0.02 82 1012.7
20260503010031 52 310 0.0 0.0 0.00 0.02 0.02 81 1012.6
20260503005526 52 310 0.0 0.0 0.00 0.02 0.02 81 1012.5
20260503005238 52 310 0.0 0.0 0.00 0.02 0.02 80 1012.5
20260503004514 52 311 0.0 0.0 0.00 0.02 0.02 80 1012.4
20260503004007 52 310 0.0 0.0 0.00 0.02 0.02 79 1012.3
20260503003719 53 310 0.0 0.0 0.00 0.02 0.02 79 1012.2
20260503002955 53 310 0.0 0.0 0.00 0.02 0.02 78 1012.1
20260503002449 53 310 0.0 0.0 0.00 0.02 0.02 78 1012.2
20260503001943 53 310 0.0 0.0 0.00 0.02 0.02 78 1012.1
20260503001437 53 310 0.0 0.0 0.00 0.02 0.02 77 1012.1
20260503000930 53 310 0.0 0.0 0.00 0.02 0.02 77 1012.1
20260503000917 54 310 0.0 0.0 0.00 0.02 0.02 76 1012.0
20260502235920 54 310 0.0 0.0 0.00 0.02 0.02 75 1011.9
20260502235413 54 310 0.0 0.0 0.00 0.02 0.02 74 1011.9
20260502234907 55 310 0.0 0.0 0.00 0.02 0.02 74 1011.9
20260502234400 55 310 0.0 0.0 0.00 0.02 0.02 73 1011.9
20260502233855 55 310 0.0 0.0 0.00 0.02 0.02 73 1011.8
20260502233350 56 310 0.0 0.0 0.00 0.02 0.02 72 1011.8
20260502232843 56 313 0.0 0.0 0.00 0.02 0.02 72 1011.7
20260502232338 56 312 0.0 2.0 0.00 0.02 0.02 71 1011.7
20260502231831 56 312 0.0 2.0 0.00 0.02 0.02 69 1011.7
20260502231545 56 313 0.0 3.0 0.00 0.02 0.02 68 1011.7
20260502230818 56 313 0.0 3.0 0.00 0.02 0.02 68 1011.5
20260502230313 56 312 1.0 3.0 0.00 0.02 0.02 67 1011.6
20260502225806 57 274 2.0 4.0 0.00 0.02 0.02 65 1011.6
20260502225301 57 273 1.0 4.0 0.00 0.02 0.02 66 1011.6
20260502224755 57 291 1.0 3.0 0.00 0.02 0.02 65 1011.7
20260502224249 57 299 1.0 3.0 0.00 0.02 0.02 65 1011.6
20260502224229 58 287 1.0 3.0 0.00 0.02 0.02 66 1011.7